Weather History for Lowell, ID

Change the Weather History Date:

Wednesday, May 7, 2014

  Actual Average Record
Temperature  
Mean Temperature 53 °F -  
Max Temperature 62 °F 63 °F 86 °F (2013)
Min Temperature 43 °F 39 °F 34 °F (2001)
Degree Days  
Heating Degree Days 12    
Growing Degree Days 3 (Base 50)    
Moisture  
Dew Point 43 °F    
Average Humidity 81    
Maximum Humidity 97    
Minimum Humidity 43    
Precipitation  
Precipitation 0.00 in - - ()
Sea Level Pressure  
Sea Level Pressure 29.93 in    
Wind  
Wind Speed 1 mph (WSW)    
Max Wind Speed 8 mph    
Max Gust Speed -    
Averages and records for this station are not official NWS values.
T = Trace of Precipitation, MM = Missing Value Source: NWS Daily Summary

Daily Weather History Graph

Daily Weather History Graph

Search for Another Location

Airport:

Trip Planner

Search our weather history database for the weather conditions in past years. The results will help you decide how hot, cold, wet, or windy it might be!

Date:

Astronomy

May. 07, 2014 Rise Set
Actual Time 6:20 AM MDT 8:58 PM MDT
Civil Twilight 5:45 AM MDT 9:32 PM MDT
Nautical Twilight 5:03 AM MDT 10:16 PM MDT
Astronomical Twilight 4:13 AM MDT 11:06 PM MDT
Moon 1:44 PM MDT (5/7) 2:45 AM MDT (5/7)
Length of Visible Light 15h 46m
Length of Day
14h 38m
First Quarter, 56% of the Moon is Illuminated
May 7
First Quarter
May 14
Full
May 21
Last Quarter
May 28
New
Jun 5
First Quarter

Hourly Weather History & Observations

Time (MDT) Temp. Dew Point Humidity Pressure Visibility Wind Dir Wind Speed Gust Speed Precip Events Conditions
12:52 AM 46.0 °F 44.1 °F 93% 29.92 in - Calm Calm - N/A   Unknown
1:52 AM 45.0 °F 44.1 °F 97% 29.92 in - Calm Calm - N/A   Unknown
2:52 AM 46.0 °F 44.1 °F 93% 29.92 in - Calm Calm - N/A   Unknown
3:52 AM 45.0 °F 43.0 °F 93% 29.94 in - Calm Calm - N/A   Unknown
4:52 AM 44.1 °F 43.0 °F 96% 29.94 in - Calm Calm - N/A   Unknown
5:52 AM 44.1 °F 42.1 °F 93% 29.94 in - Calm Calm - N/A   Unknown
6:52 AM 44.1 °F 42.1 °F 93% 29.95 in - Calm Calm - N/A   Unknown
7:52 AM 44.1 °F 42.1 °F 93% 29.96 in - Calm Calm - N/A   Unknown
8:52 AM 45.0 °F 42.1 °F 90% 29.97 in - Calm Calm - N/A   Unknown
9:52 AM 46.0 °F 42.1 °F 86% 29.97 in - Calm Calm - N/A   Unknown
10:52 AM 48.0 °F 43.0 °F 83% 29.97 in - Calm Calm - N/A   Unknown
11:52 AM 50.0 °F 43.0 °F 77% 29.97 in - Calm Calm - N/A   Unknown
12:52 PM 53.1 °F 43.0 °F 69% 29.94 in - South 8.1 mph - N/A   Unknown
1:52 PM 59.0 °F 41.0 °F 51% 29.90 in - Variable 6.9 mph - N/A   Unknown
2:52 PM 62.1 °F 39.0 °F 43% 29.87 in - Variable 3.5 mph - N/A   Unknown
3:52 PM 57.9 °F 44.1 °F 60% 29.88 in - Variable 5.8 mph - N/A   Unknown
4:52 PM 52.0 °F 48.0 °F 86% 29.91 in - Variable 3.5 mph - N/A   Unknown
5:52 PM 60.1 °F 42.1 °F 51% 29.88 in - NNW 5.8 mph - N/A   Unknown
6:52 PM 55.9 °F 45.0 °F 67% 29.90 in - Calm Calm - N/A   Unknown
7:52 PM 52.0 °F 46.0 °F 80% 29.91 in - Calm Calm - N/A   Unknown
8:52 PM 48.9 °F 43.0 °F 80% 29.93 in - Calm Calm - N/A   Unknown
9:52 PM 46.0 °F 43.0 °F 89% 29.95 in - Calm Calm - N/A   Unknown
10:52 PM 44.1 °F 41.0 °F 89% 29.97 in - Calm Calm - N/A   Unknown
11:52 PM 43.0 °F 41.0 °F 93% 29.98 in - Calm Calm - N/A   Unknown